Arlington, WA
on Sunday, January 27, 2013

Sunday
Previous Day Next Day
Daily Summary
 ActualAverageRecord
Temperature
Mean Temperature °F °F  
Max Temperature 41°F 41°F 53°F (2005)
Min Temperature 35°F 27°F 17°F (1997)
Degree Days
Heating Degree Days 27    
Moisture
Dew Point 36°F   
Average Humidity 90    
Maximum Humidity 93    
Minimum Humidity 87    
Precipitation
Precipitation 0.06 in in in ()
Wind
Wind Speed 3 mph   
Max Wind Speed 10 mph   
Max Gust Speed mph   
Visibility 9 miles   
Events     
Averages and records for this station are not official NWS values.
Key: T is trace of precipitation, MM is missing value
Source: NWS Daily Summary
Seasonal Weather Averages
Time(PST)TemperatureDew PointHumidity Pressure Visibility Wind DirectionWind SpeedGust SpeedPrecipitationEvents Conditions
12:15 AM 37.4°F 35.6°F 93% 30.04 in 10.0 miles Calm Calm - N/A   Mostly Cloudy
12:35 AM 37.4°F 35.6°F 93% 30.04 in 6.0 miles Calm Calm - N/A   Overcast
12:55 AM 39.2°F 35.6°F 87% 30.04 in 10.0 miles Calm Calm - N/A   Overcast
1:15 AM 37.4°F 35.6°F 93% 30.04 in 7.0 miles Calm Calm - N/A   Overcast
1:35 AM 37.4°F 35.6°F 93% 30.04 in 10.0 miles Calm Calm - N/A   Overcast
1:55 AM 37.4°F 35.6°F 93% 30.04 in 10.0 miles Calm Calm - N/A   Overcast
2:15 AM 37.4°F 35.6°F 93% 30.05 in 5.0 miles Calm Calm - N/A   Overcast
2:35 AM 39.2°F 37.4°F 93% 30.05 in 8.0 miles Calm Calm - N/A   Overcast
2:55 AM 39.2°F 35.6°F 87% 30.05 in 10.0 miles Calm Calm - N/A   Overcast
3:15 AM 39.2°F 37.4°F 93% 30.04 in 10.0 miles Calm Calm - N/A   Overcast
3:35 AM 37.4°F 35.6°F 93% 30.05 in 5.0 miles NNW 6.9 mph - N/A   Overcast
3:55 AM 39.2°F 37.4°F 93% 30.05 in 7.0 miles Calm Calm - N/A   Overcast
4:15 AM 39.2°F 35.6°F 87% 30.05 in 7.0 miles South 4.6 mph - 0.01 in   Overcast
4:35 AM 37.4°F 35.6°F 93% 30.04 in 10.0 miles SSE 3.5 mph - 0.01 in   Overcast
4:55 AM 37.4°F 35.6°F 93% 30.05 in 10.0 miles SSE 4.6 mph - 0.01 in   Overcast
5:15 AM 39.2°F 35.6°F 87% 30.04 in 10.0 miles SSE 5.8 mph - N/A   Overcast
5:35 AM 39.2°F 35.6°F 87% 30.04 in 10.0 miles SE 6.9 mph - N/A   Overcast
5:55 AM 37.4°F 35.6°F 93% 30.04 in 10.0 miles South 3.5 mph - N/A   Overcast
6:15 AM 37.4°F 35.6°F 93% 30.04 in 10.0 miles Calm Calm - N/A   Overcast
6:35 AM 37.4°F 35.6°F 93% 30.04 in 10.0 miles South 4.6 mph - N/A   Overcast
6:55 AM 37.4°F 35.6°F 93% 30.04 in 10.0 miles SSE 6.9 mph - N/A   Overcast
7:15 AM 37.4°F 35.6°F 93% 30.04 in 10.0 miles SSE 3.5 mph - N/A   Overcast
7:35 AM 37.4°F 35.6°F 93% 30.04 in 10.0 miles SSE 6.9 mph - N/A   Overcast
7:55 AM 39.2°F 35.6°F 87% 30.05 in 10.0 miles South 5.8 mph - N/A   Overcast
8:15 AM 39.2°F 35.6°F 87% 30.05 in 10.0 miles SSE 8.1 mph - N/A   Overcast
8:35 AM 39.2°F 35.6°F 87% 30.05 in 10.0 miles SSE 6.9 mph - N/A   Overcast
8:55 AM 39.2°F 35.6°F 87% 30.05 in 10.0 miles SSE 6.9 mph - N/A   Overcast
9:15 AM 39.2°F 37.4°F 93% 30.05 in 10.0 miles SSE 5.8 mph - N/A   Overcast
9:35 AM 39.2°F 37.4°F 93% 30.05 in 10.0 miles SSE 8.1 mph - N/A   Overcast
9:55 AM 39.2°F 37.4°F 93% 30.06 in 10.0 miles South 6.9 mph - N/A   Overcast
10:15 AM 39.2°F 37.4°F 93% 30.06 in 10.0 miles South 6.9 mph - N/A   Overcast
10:35 AM 39.2°F 37.4°F 93% 30.06 in 10.0 miles South 9.2 mph - N/A   Overcast
10:55 AM 41.0°F 37.4°F 87% 30.06 in 10.0 miles SSE 6.9 mph - N/A   Overcast
11:15 AM 41.0°F 37.4°F 87% 30.06 in 10.0 miles South 6.9 mph - N/A   Overcast
11:35 AM 41.0°F 37.4°F 87% 30.05 in 10.0 miles SSE 4.6 mph - N/A   Overcast
11:55 AM 41.0°F 37.4°F 87% 30.04 in 10.0 miles SSE 6.9 mph - N/A   Overcast
12:15 PM 41.0°F 37.4°F 87% 30.04 in 10.0 miles South 10.4 mph - N/A   Overcast
12:35 PM 41.0°F 37.4°F 87% 30.03 in 10.0 miles South 6.9 mph - N/A   Overcast
12:55 PM 41.0°F 37.4°F 87% 30.02 in 10.0 miles South 4.6 mph - N/A   Overcast
1:15 PM 41.0°F 37.4°F 87% 30.01 in 10.0 miles South 3.5 mph - N/A   Overcast
1:35 PM 41.0°F 37.4°F 87% 30.01 in 10.0 miles South 5.8 mph - N/A   Overcast
1:55 PM 41.0°F 37.4°F 87% 30.00 in 10.0 miles SSE 6.9 mph - N/A   Overcast
2:15 PM 41.0°F 37.4°F 87% 30.00 in 10.0 miles South 8.1 mph - N/A   Overcast
2:35 PM 41.0°F 37.4°F 87% 30.00 in 10.0 miles South 9.2 mph - N/A   Overcast
2:55 PM 41.0°F 37.4°F 87% 30.01 in 10.0 miles South 10.4 mph - N/A   Overcast
3:15 PM 39.2°F 37.4°F 93% 30.00 in 10.0 miles SSE 9.2 mph - N/A   Overcast
3:35 PM 39.2°F 37.4°F 93% 30.00 in 10.0 miles South 8.1 mph - N/A   Overcast
3:55 PM 39.2°F 37.4°F 93% 30.01 in 10.0 miles South 5.8 mph - N/A   Overcast
4:15 PM 39.2°F 37.4°F 93% 30.01 in 10.0 miles South 6.9 mph - N/A   Overcast
4:35 PM 39.2°F 37.4°F 93% 30.00 in 10.0 miles SSE 5.8 mph - 0.01 in   Overcast
4:55 PM 39.2°F 35.6°F 87% 30.00 in 10.0 miles SSE 6.9 mph - 0.01 in   Overcast
5:15 PM 39.2°F 35.6°F 87% 30.00 in 10.0 miles SSE 8.1 mph - N/A   Overcast
5:35 PM 37.4°F 35.6°F 93% 30.00 in 10.0 miles SE 5.8 mph - N/A   Overcast
5:55 PM 37.4°F 35.6°F 93% 30.01 in 10.0 miles NNE 4.6 mph - N/A   Overcast
6:15 PM 37.4°F 33.8°F 87% 30.01 in 10.0 miles Calm Calm - N/A   Overcast
6:35 PM 37.4°F 33.8°F 87% 30.01 in 10.0 miles NNE 4.6 mph - 0.01 in   Overcast
6:55 PM 37.4°F 33.8°F 87% 30.01 in 6.0 miles Calm Calm - 0.02 in   Overcast
7:15 PM 37.4°F 33.8°F 87% 30.02 in 7.0 miles Calm Calm - 0.01 in   Overcast
7:35 PM 37.4°F 33.8°F 87% 30.02 in 9.0 miles Calm Calm - 0.01 in   Overcast
7:55 PM 37.4°F 33.8°F 87% 30.02 in 10.0 miles Calm Calm - 0.01 in   Overcast
8:15 PM 37.4°F 33.8°F 87% 30.01 in 10.0 miles Calm Calm - N/A   Overcast
8:35 PM 35.6°F 33.8°F 93% 30.01 in 8.0 miles Calm Calm - N/A   Overcast
8:55 PM 37.4°F 35.6°F 93% 30.01 in 8.0 miles Calm Calm - N/A   Overcast
9:15 PM 37.4°F 35.6°F 93% 30.00 in 10.0 miles Calm Calm - N/A   Overcast
9:35 PM 37.4°F 35.6°F 93% 30.00 in 10.0 miles Calm Calm - N/A   Overcast
9:55 PM 37.4°F 35.6°F 93% 30.00 in 10.0 miles SSE 4.6 mph - N/A   Overcast
10:15 PM 37.4°F 35.6°F 93% 30.00 in 10.0 miles Calm Calm - 0.01 in   Overcast
10:35 PM 37.4°F 35.6°F 93% 30.01 in 9.0 miles Calm Calm - 0.01 in   Overcast
10:55 PM 37.4°F 35.6°F 93% 30.02 in 7.0 miles Calm Calm - 0.01 in   Overcast
11:15 PM 37.4°F 35.6°F 93% 30.01 in 7.0 miles Calm Calm - N/A   Overcast
11:35 PM 37.4°F 35.6°F 93% 30.01 in 10.0 miles Calm Calm - N/A   Overcast
11:55 PM 37.4°F 35.6°F 93% 30.01 in 10.0 miles SSE 5.8 mph - N/A   Overcast
Moon Phase
Jan. 27 Feb. 03 Feb. 10 Feb. 17 Feb. 25
Sunrise:07:42 AM (PST) Moon Rise:06:09 PM (PST)1/27
Sunset:05:01 PM (PST) Moon Set:07:31 AM (PST)1/27

Copyright © 2014 The Weather Underground, Inc.